Date String (YYYY-MM-DD hh:mm:ss) UTC,Instrument flags,Ambient pressure (hPa),Sample flow (lpm),Bypass flow (lpm),Sample temperature (°C),Ambient temperature (°C),ASC tube jacket temperature (°C),LED temperature (°C),Box temperature (°C),Sample RH (%),Span deviation,Mass concentration (μg/m³),Mass concentration (μg/m³),Mass concentration (μg/m³)
DateTimeUTC,F1_M11,P_M11,Q1_M11,Q2_M11,T1_M11,T2_M11,T3_M11,T4_M11,T5_M11,U1_M11,ZSPAN_M11,X0_M11,X2_M11,X1_M11
2022-05-10 18:00:00,,0826.2,5.00,0.00,25.6,24.9,00.0,34.5,27.5,10.6,0000.0,0018.18,0004.78,0002.08
2022-05-10 18:01:00,,0826.2,5.00,0.00,25.6,24.9,00.0,34.5,27.5,10.8,0000.0,0018.19,0004.79,0002.08
2022-05-10 18:02:00,,0826.1,5.01,0.00,25.6,24.9,00.0,34.5,27.5,11.6,0000.0,0018.85,0004.81,0002.08
2022-05-10 18:03:00,,0826.1,5.00,0.00,25.6,25.0,00.0,34.5,27.5,11.1,0000.0,0018.58,0004.86,0002.09
2022-05-10 18:04:00,,0826.1,5.00,0.00,25.6,25.0,00.0,34.5,27.4,10.7,0000.0,0019.77,0004.90,0002.14
2022-05-10 18:05:00,,0826.1,5.00,0.00,25.6,25.0,00.0,34.5,27.4,10.7,0000.0,0019.42,0004.91,0002.18
2022-05-10 18:06:00,,0826.1,5.00,0.00,25.5,24.9,00.0,34.5,27.4,10.5,0000.0,0019.39,0004.94,0002.23
2022-05-10 18:07:00,,0826.1,4.99,0.00,25.5,24.9,00.0,34.5,27.4,10.8,0000.0,0018.67,0004.91,0002.25
2022-05-10 18:08:00,,0826.1,5.00,0.00,25.5,24.8,00.0,34.5,27.3,10.7,0000.0,0018.74,0004.99,0002.30
2022-05-10 18:09:00,,0826.1,5.01,0.00,25.5,24.8,00.0,34.5,27.3,11.0,0000.0,0018.71,0005.02,0002.34
2022-05-10 18:10:00,,0826.1,5.00,0.00,25.5,24.8,00.0,34.5,27.3,12.0,0000.0,0018.53,0004.97,0002.35
2022-05-10 18:11:00,,0826.1,5.00,0.00,25.5,24.9,00.0,34.5,27.3,11.8,0000.0,0018.27,0004.96,0002.37
2022-05-10 18:12:00,,0826.0,5.00,0.00,25.5,24.8,00.0,34.5,27.3,11.2,0000.0,0018.68,0005.03,0002.41
2022-05-10 18:13:00,,0826.1,5.00,0.00,25.5,24.8,00.0,34.5,27.3,10.8,0000.0,0018.35,0005.05,0002.48
2022-05-10 18:14:00,,0826.1,5.00,0.00,25.5,24.9,00.0,34.5,27.3,11.2,0000.0,0018.71,0005.08,0002.53
2022-05-10 18:15:00,,0826.0,5.01,0.00,25.5,24.9,00.0,34.5,27.3,11.1,0000.0,0018.96,0005.08,0002.55
2022-05-10 18:16:00,,0826.0,4.99,0.00,25.5,24.9,00.0,34.5,27.3,11.0,0000.0,0019.20,0005.09,0002.58
2022-05-10 18:17:00,,0825.9,5.00,0.00,25.5,24.9,00.0,34.5,27.4,11.1,0000.0,0019.71,0005.11,0002.60
2022-05-10 18:18:00,,0825.9,4.99,0.00,25.5,24.9,00.0,34.5,27.4,10.9,0000.0,0020.18,0005.14,0002.65
2022-05-10 18:19:00,,0825.9,4.99,0.00,25.5,24.9,00.0,34.5,27.4,11.2,0000.0,0020.81,0005.14,0002.65
2022-05-10 18:20:00,,0825.9,5.02,0.00,25.6,25.0,00.0,34.5,27.4,11.7,0000.0,0021.40,0005.13,0002.66
2022-05-10 18:21:00,,0825.9,5.00,0.00,25.6,25.0,00.0,34.5,27.4,12.1,0000.0,0021.38,0005.20,0002.69
2022-05-10 18:22:00,,0825.9,5.00,0.00,25.6,25.0,00.0,34.5,27.4,11.8,0000.0,0021.19,0005.26,0002.72
2022-05-10 18:23:00,,0825.9,5.00,0.00,25.6,25.1,00.0,34.5,27.4,11.8,0000.0,0020.46,0005.25,0002.75
2022-05-10 18:24:00,,0825.9,4.99,0.00,25.6,25.0,00.0,34.5,27.5,11.5,0000.0,0020.13,0005.24,0002.77
2022-05-10 18:25:00,,0825.9,4.99,0.00,25.6,25.0,00.0,34.5,27.4,11.4,0000.0,0019.51,0005.19,0002.76
2022-05-10 18:26:00,,0825.9,5.00,0.00,25.6,25.0,00.0,34.5,27.4,11.7,0000.0,0018.23,0005.18,0002.76
2022-05-10 18:27:00,,0825.7,5.00,0.00,25.6,25.0,00.0,34.5,27.4,11.2,0000.0,0017.80,0005.19,0002.75
2022-05-10 18:28:00,,0825.7,5.00,0.00,25.6,25.0,00.0,34.5,27.5,11.2,0000.0,0017.65,0005.17,0002.72
2022-05-10 18:29:00,,0825.8,5.00,0.00,25.6,25.0,00.0,34.5,27.5,12.0,0000.0,0017.28,0005.16,0002.68
2022-05-10 18:30:00,,0825.7,5.00,0.00,25.6,25.0,00.0,34.5,27.5,11.7,0000.0,0017.44,0005.21,0002.68
2022-05-10 18:31:00,,0825.7,5.00,0.00,25.6,25.1,00.0,34.5,27.5,11.1,0000.0,0016.30,0005.27,0002.68
2022-05-10 18:32:00,,0825.7,5.00,0.00,25.6,25.1,00.0,34.6,27.5,11.0,0000.0,0015.71,0005.22,0002.66
2022-05-10 18:33:00,,0825.6,4.99,0.00,25.6,25.1,00.0,34.6,27.5,11.0,0000.0,0014.97,0005.17,0002.65
2022-05-10 18:34:00,,0825.7,5.01,0.00,25.7,25.1,00.0,34.6,27.6,10.8,0000.0,0015.32,0005.12,0002.62
2022-05-10 18:35:00,,0825.7,4.99,0.00,25.7,25.1,00.0,34.6,27.6,11.3,0000.0,0015.61,0005.10,0002.56
2022-05-10 18:36:00,,0825.7,5.00,0.00,25.7,25.1,00.0,34.6,27.6,11.6,0000.0,0015.96,0005.11,0002.55
2022-05-10 18:37:00,,0825.6,5.01,0.00,25.7,25.1,00.0,34.6,27.5,11.5,0000.0,0016.82,0005.14,0002.59
2022-05-10 18:38:00,,0825.6,5.00,0.00,25.7,25.1,00.0,34.6,27.5,11.0,0000.0,0016.50,0005.15,0002.60
2022-05-10 18:39:00,,0825.6,4.99,0.00,25.7,25.1,00.0,34.6,27.5,11.9,0000.0,0016.45,0005.13,0002.61
2022-05-10 18:40:00,,0825.5,5.01,0.00,25.7,25.1,00.0,34.6,27.5,11.4,0000.0,0016.38,0005.13,0002.63
2022-05-10 18:41:00,,0825.6,5.01,0.00,25.7,25.1,00.0,34.6,27.5,11.2,0000.0,0016.04,0005.13,0002.63
2022-05-10 18:42:00,,0825.6,4.99,0.00,25.7,25.1,00.0,34.6,27.5,11.3,0000.0,0016.47,0005.09,0002.63
2022-05-10 18:43:00,,0825.6,4.99,0.00,25.7,25.2,00.0,34.6,27.6,11.8,0000.0,0017.48,0005.11,0002.62
2022-05-10 18:44:00,,0825.6,5.01,0.00,25.7,25.2,00.0,34.6,27.6,11.0,0000.0,0018.31,0005.12,0002.61
2022-05-10 18:45:00,,0825.5,4.99,0.00,25.7,25.1,00.0,34.6,27.6,11.1,0000.0,0019.28,0005.15,0002.64
2022-05-10 18:46:00,,0825.5,5.00,0.00,25.7,25.1,00.0,34.6,27.6,11.2,0000.0,0019.79,0005.16,0002.67
2022-05-10 18:47:00,,0825.5,5.02,0.00,25.7,25.1,00.0,34.6,27.6,10.9,0000.0,0020.04,0005.16,0002.66
2022-05-10 18:48:00,,0825.5,5.00,0.00,25.7,25.1,00.0,34.6,27.6,11.2,0000.0,0020.23,0005.13,0002.61
2022-05-10 18:49:00,,0825.4,4.99,0.00,25.8,25.2,00.0,34.7,27.7,12.0,0000.0,0021.83,0005.17,0002.59
2022-05-10 18:50:00,,0825.5,5.00,0.00,25.8,25.2,00.0,34.7,27.7,11.8,0000.0,0022.14,0005.17,0002.62
2022-05-10 18:51:00,,0825.4,5.00,0.00,25.8,25.2,00.0,34.7,27.7,11.7,0000.0,0021.97,0005.13,0002.64
2022-05-10 18:52:00,,0825.4,5.00,0.00,25.8,25.2,00.0,34.7,27.7,12.3,0000.0,0021.58,0005.10,0002.67
2022-05-10 18:53:00,,0825.4,5.01,0.00,25.8,25.2,00.0,34.7,27.7,12.0,0000.0,0020.75,0005.14,0002.72
2022-05-10 18:54:00,,0825.3,5.00,0.00,25.8,25.3,00.0,34.7,27.7,11.8,0000.0,0020.00,0005.20,0002.79
2022-05-10 18:55:00,,0825.3,5.00,0.00,25.8,25.3,00.0,34.7,27.7,11.7,0000.0,0019.98,0005.26,0002.86
2022-05-10 18:56:00,,0825.3,4.99,0.00,25.8,25.2,00.0,34.7,27.7,11.8,0000.0,0019.88,0005.28,0002.90
2022-05-10 18:57:00,,0825.3,5.01,0.00,25.8,25.2,00.0,34.7,27.7,11.6,0000.0,0019.56,0005.33,0002.95
2022-05-10 18:58:00,,0825.3,5.00,0.00,25.8,25.2,00.0,34.7,27.7,11.7,0000.0,0019.02,0005.35,0003.00
2022-05-10 18:59:00,,0825.3,5.00,0.00,25.8,25.2,00.0,34.7,27.6,11.7,0000.0,0018.11,0005.39,0003.05
